Location: Cucq
(50.4773°N, 1.6202°E)
Time: 16:25:22
(UTC+00:00)

CBERS-1 - Pass Details

Date: 07 August 2020
Orbit: 769 x 778 km, 98.6° (Epoch: 18 September)

Event Time Altitude Azimuth Distance (km) Brightness Sun altitude
Rises 01:58:31 0° 17° (NNE) 3,265 8.8 -18.3°
Reaches altitude 10° 02:00:54 10° 22° (NNE) 2,332 7.7 -18.1°
Maximum altitude 02:05:58 58° 101° (ESE) 899 4.4 -17.6°
Enters shadow 02:09:09 22° 174° (S) 1,626 5.2 -17.4°
